Showing default

OPS 9343 (IDSCS 21), 3286

Orbit data source: Space-Track

OPS 9343 (IDSCS 21), 3286 is a payload satellite owned by SAMSO (US) in GEO that was launched on Thu, 13 Jun 1968 UTC via a TITAN IIIC launch vehicle from the Air Force Eastern Test Range (AFETR). Payload-class satellites include a variety of spacecraft equipped with specific instruments for various scientific and technological missions. These include communications satellites like Starlink; space stations such as the ISS; scientific satellites like the Hubble; Earth observation satellites from companies like Planet Labs, Umbra, and HawkEye 360; GPS; miniature CubeSats for education and research; and military/defense satellites.

Not visible in the next 10 days
Identifier
3286, 1968-050C
Orbit
GEO
Country
Flag of USUS
Related business
Manufacturer
Philco-Ford
Mission
Non-operational spacecraft
Bus & Motor
IDCSP, Unknown motor
Mass
45 kg wet, 45 kg dry
Launch date (UTC)
1968-06-13 (58 years ago)
Launch vehicle
TITAN IIIC
Launch site
Air Force Eastern Test Range (AFETR)
Object type
Payload
Rocket body
Debris
Shape & HBR
Unknown
Radar Cross Section
Medium (>0.1 m² and <1 m²)

Expand to show TLE details & history
Last TLE update: 17 hours ago

TLE from 17 hours ago
0 OPS 9343 (IDSCS 21)
1 03286U 68050C   26174.87471146 -.00000090  00000-0  00000-0 0  9996
2 03286   7.2336  51.8531 0018664 149.6065 144.8913  1.07758163 47527
Epoch: 2026-06-23T20:59Z
TLE epoch observation values (Epoch: 2026-06-23T20:59:35.070Z)
Latitude
-6.58505°
Longitude
119.72257°
Altitude
33,872.095 km
Speed
3.145 km/s
True Right ascension
23h 06m 38s
True Declination
-6° 34' 41"
Sunlit
Object was in daylight at epoch
Visualization orbit readout
Latitude
Unknown
Longitude
Unknown
Altitude
Unknown
Speed
Unknown
Apparent Right ascension
Unknown
Apparent Declination
Unknown
Sunlit
N/A
Visualization observer readout
Local Sidereal Time
00:44:25
Azimuth
Unknown
Elevation
Unknown
Doppler factor
Unknown
Orbital elements
Apogee altitude
33,886.46 km
Perigee altitude
33,736.441 km
Semi-major axis
40,189.588 km
Eccentricity
0.00187
Inclination
7.2336°
RAAN
51.8531°
Arg. of periapsis
149.6065°
True anomaly
145.01407°
Mean anomaly
144.8913°
Eccentric anomaly
144.95271°
Mean motion
0.26938 °/min
Orbital period
1,336.38 mins
BSTAR
0
Loading maneuver chart data...
Computing Atmospheric mass density...
Loading historical data...
Loading historical data...
Loading historical data...
Loading historical data...
Loading historical data...
Loading historical data...
Loading historical data...

Documentation

Showing up to 5 results
|